Погода в Миличе

Польша     51°31′37″N   17°16′43″E
темп.,
°C
ветер,
м/с
пор.,
м/с
влажн.,
%
обл.,
%
осадки,
мм/ч
давл.,
гПа
погр.,
м
1 марта, пн
пн101:00+2ссз3588100 0.0 1035464
04:00+2зсз2386100 0.0 1035288
07:00+2з1287100 0.0 1036237
10:00+3з2282100 0.0 1036417
13:00+5зюз2272100 0.0 1037514
16:00+6зюз227262 0.0 1035500
19:00+3ююз228932 0.0 103652
22:00+2ююз22930 0.0 103623
2 марта, вт
вт201:00+1юз22930 0.0 103623
04:00+1юз23930 0.0 103535
07:00+1зюз12930 0.0 103522
10:00+6з24730 0.0 1034255
13:00+11зсз35570 0.0 1034494
16:00+11зсз24570 0.0 1033498
19:00+7зсз12750 0.0 103322
22:00+5ссв11820 0.0 103322
3 марта, ср
ср301:00+4вюв01840 0.0 103422
04:00+3ю11850 0.0 103222
07:00+2ююз11880 0.0 103122
10:00+9ююз12650 0.0 1030249
13:00+13ююз12496 0.0 1028541
16:00+13юз23500 0.0 1025726
19:00+8юз23644 0.0 102433
22:00+7зюз411710 0.0 1022299
4 марта, чт
чт401:00+5зюз37810 0.0 1021178
04:00+5зюз398637 0.0 1018261
07:00+4зюз4108931 0.0 1017295
10:00+8з5107684 0.0 1015780
13:00+10з696985 0.0 10141108
16:00+10з5966100 0.0 10111214
19:00+7з4874100 0.5 1011737
22:00+5с4578100 0.3 1011590
5 марта, пт
пт501:00+3ссз4795100 0.8 1012455
04:000ссв51085100 0.7 1014665
07:000с5982100 0.8 1017743
10:00+2с575843 0.0 10201288
13:00+4с564222 0.0 10211820
16:00+3ссз56473 0.1 10221509
19:00+1зсз255952 0.2 1024173
22:00−1сз376560 0.1 1026219